This is the latest recevied weather packets stored in our database for station/object SV9TNF-1. If no packets are shown the sender has not sent any weather packets the latest 10 day(s).
| Time | Temp. | Humidity | Pressure | Rain* | Wind** | Luminosity | Snow |
|---|---|---|---|---|---|---|---|
| 1777632619 | 17.78° C | 69% | 1004.7 hPa | 0 mm | 0.89 m/s, 117° | - | - |
| 1777632319 | 17.78° C | 70% | 1004.1 hPa | 0 mm | 0 m/s | - | - |
| 1777632019 | 17.78° C | 70% | 1004.1 hPa | 0 mm | 1.34 m/s, 133° | - | - |
| 1777631718 | 17.78° C | 71% | 1004.1 hPa | 0 mm | 1.34 m/s, 126° | - | - |
| 1777631418 | 17.78° C | 70% | 1004.1 hPa | 0 mm | 0 m/s | - | - |
| 1777631118 | 17.78° C | 69% | 1004.1 hPa | 0 mm | 1.34 m/s, 135° | - | - |
| 1777630818 | 18.33° C | 69% | 1004.7 hPa | 0 mm | 0.45 m/s, 132° | - | - |
| 1777630518 | 18.33° C | 70% | 1004.7 hPa | 0 mm | 0.45 m/s, 123° | - | - |
| 1777630218 | 17.78° C | 69% | 1004.1 hPa | 0 mm | 2.24 m/s, 119° | - | - |
| 1777629918 | 18.33° C | 71% | 1004.1 hPa | 0 mm | 2.24 m/s, 128° | - | - |
| 1777629618 | 18.33° C | 69% | 1004.1 hPa | 0 mm | 4.02 m/s, 138° | - | - |
| 1777629318 | 18.33° C | 70% | 1004.1 hPa | 0 mm | 1.34 m/s, 131° | - | - |
| 1777629018 | 18.33° C | 70% | 1004.1 hPa | 0 mm | 0.89 m/s, 140° | - | - |
| 1777628718 | 18.33° C | 71% | 1004.1 hPa | 0 mm | 0.89 m/s, 140° | - | - |
| 1777628417 | 18.33° C | 70% | 1004.1 hPa | 0 mm | 1.34 m/s, 140° | - | - |
| 1777628117 | 18.33° C | 71% | 1004.1 hPa | 0 mm | 1.34 m/s, 108° | - | - |
| 1777627817 | 18.33° C | 70% | 1004.1 hPa | 0 mm | 1.79 m/s, 124° | - | - |
| 1777627517 | 18.33° C | 71% | 1004.1 hPa | 0 mm | 0 m/s | - | - |
| 1777627217 | 18.33° C | 71% | 1004.1 hPa | 0 mm | 1.34 m/s, 123° | - | - |
| 1777626917 | 18.33° C | 71% | 1004.1 hPa | 0 mm | 1.34 m/s, 129° | - | - |
| 1777626617 | 18.33° C | 71% | 1004.1 hPa | 0 mm | 1.34 m/s, 132° | - | - |
| 1777626317 | 18.33° C | 71% | 1004.1 hPa | 0 mm | 1.79 m/s, 130° | - | - |
| 1777626018 | 18.33° C | 70% | 1004.1 hPa | 0 mm | 1.34 m/s, 136° | - | - |
| 1777625717 | 18.33° C | 70% | 1004.1 hPa | 0 mm | 1.79 m/s, 131° | - | - |
| 1777625417 | 17.78° C | 71% | 1004.1 hPa | 0 mm | 0.89 m/s, 126° | - | - |
* Rain latest hour (hover to see other rain measurements)
** Current wind speed in m/s (hover to see current wind gust speed)